[[{"header":{"parameterUnit":"m.s-1","parameterCategory":1,"la1":30.2991,"la2":30.254,"lo1":-89.0895,"lo2":-89.0444,"dy":0.0017,"dx":0.0017,"nx":28,"ny":28,"refTime":"2024-06-27T09:00:00:Z","depth":0,"parameterNumber":2,"parameterNumberName":"U-component_of_WINDS"},"data":[0,0,0,0,0,0,0,0,0,0,0,0,0,0,0,0,0,0,0,0,0,0,0,0,0,0,0,0,0,0,0,0,0,0,0,0,0,0,0,0,0,0,0,0,0,0,0,0,0,0,0,0,0,0,0,0,0,0,2.8794,2.8795,0,2.8934,2.8936,2.8937,2.8939,2.8937,2.8936,2.8934,2.9079,2.9084,2.909,0,0,0,0,0,0,0,0,0,0,0,0,0,2.8527,2.8532,2.8794,2.8796,2.8797,2.8934,2.8936,2.8938,2.894,2.8937,2.8935,2.8933,2.9077,2.9084,2.909,0,0,0,0,0,0,0,0,0,0,0,0,0,2.8653,2.8534,2.8793,2.8815,2.8818,2.8934,2.8936,2.8938,2.894,2.8937,2.8935,2.8932,2.9075,2.9083,2.9091,2.9195,0,0,2.9116,2.912,0,0,0,0,0,0,0,0,2.8646,2.8663,2.881,2.8813,2.8817,2.8916,2.8895,2.9025,2.8941,2.8894,2.8934,2.8931,2.9027,2.9039,2.9071,2.9202,2.9208,2.9117,2.9122,2.9126,2.9128,0,0,0,0,0,0,0,2.8637,2.8657,2.8849,2.8812,2.8816,2.8817,2.8832,2.892,2.8974,2.8898,2.8898,2.8915,2.9029,2.9063,2.9075,2.9211,2.9117,2.9124,2.9129,2.9132,2.9432,2.9435,0,0,0,0,0,0,2.8624,2.8649,2.8845,2.8854,2.8723,2.8824,2.8841,2.8887,2.8973,2.8983,2.8917,2.8914,2.905,2.9065,2.908,2.9206,2.9126,2.9133,2.9138,2.9429,2.9433,2.9436,0,0,0,0,0,0,2.8618,2.8641,2.8839,2.8752,2.8777,2.8831,2.8884,2.8891,2.8926,2.8987,2.8997,2.8942,2.9049,2.9068,2.9166,2.9211,2.9137,2.9145,2.9426,2.943,2.9435,2.946,0,0,0,0,0,0,2.8611,2.8639,2.868,2.8753,2.8781,2.8923,2.8887,2.8896,2.894,2.8938,2.9014,2.9024,2.9048,2.9154,2.9174,2.9221,2.9151,2.9422,2.9428,2.9433,2.9456,2.9465,2.9473,0,0,0,0,0,2.8601,2.8682,2.8682,2.8705,2.8833,2.8926,2.8943,2.8969,2.8944,2.8985,2.9024,2.9021,2.9203,2.9164,2.9187,2.9237,2.9419,2.9426,2.9433,2.9452,2.9463,2.9473,0,0,0,0,0,0,2.8613,2.8692,2.8692,2.8799,2.8856,2.8926,2.8978,2.8981,2.9046,2.9041,2.9072,2.9089,2.9186,2.9222,2.9176,2.9342,2.9308,2.932,2.9315,2.9326,2.9335,2.9324,2.9158,0,0,0,0,0,2.8628,2.8697,2.8762,2.885,2.8879,2.8924,2.8965,2.898,2.904,2.9064,2.9111,2.9169,2.9239,2.9285,2.9353,2.9461,2.9477,2.9507,2.9516,2.9523,2.9532,2.959,2.9604,2.9458,2.9458,2.9458,0,0,2.8661,2.8712,2.8754,2.8854,2.89,2.897,2.8944,2.902,2.9072,2.9076,2.9171,2.9207,2.9274,2.9377,2.9425,2.941,2.9576,2.9531,2.9536,2.9542,2.9599,2.9612,2.9624,2.9463,2.9462,2.9461,0,0,2.8754,2.8801,2.8878,2.8924,2.8993,2.9023,2.9041,2.9111,2.9135,2.923,2.9234,2.9297,2.9418,2.9465,2.9505,2.9615,2.9615,2.9637,2.9682,2.9739,2.975,2.976,2.9798,2.9812,2.9646,2.9646,2.9647,0,2.8785,2.8891,2.8918,2.8994,2.9037,2.9044,2.9122,2.9166,2.9254,2.9283,2.9265,2.9415,2.9462,2.9575,2.9601,2.9634,2.9655,2.9628,2.9746,2.9757,2.9767,2.9803,2.9818,2.9649,2.9648,2.9648,2.9648,0,2.8925,2.8999,2.9053,2.9137,2.9187,2.9263,2.9301,2.9348,2.9359,2.939,2.9487,2.9542,2.962,2.9649,2.9661,2.9764,2.9752,2.974,2.9707,2.9782,2.9817,2.9831,2.9651,2.9651,2.965,2.965,0,0,2.9031,2.9128,2.9147,2.9184,2.9261,2.9318,2.9394,2.9471,2.951,2.957,2.9635,2.9736,2.9725,2.977,2.9787,2.9837,2.9919,2.9819,2.9821,2.9834,3.0034,3.0041,3.0057,2.9919,2.9922,2.9925,3.0028,0,2.9132,2.9267,2.9293,2.9411,2.9478,2.9485,2.9552,2.9606,2.9636,2.9698,2.9732,2.9803,2.9784,2.9811,2.986,2.9898,2.9959,2.9892,2.9979,2.9982,2.996,3.0076,3.0084,3.0179,3.0041,3.0044,3.0046,0,2.9268,2.933,2.9454,2.952,2.955,2.9609,2.968,2.9739,2.98,2.9819,2.9868,2.988,2.9959,2.9923,3.0032,2.9985,3.0023,3.0047,3.0051,3.0059,3.0017,3.0085,3.021,3.0223,3.0067,3.0066,3.0064,0,2.933,2.9446,2.9535,2.9567,2.9646,2.9687,2.9722,2.9781,2.9824,2.9887,2.9915,2.9986,3.0025,3.008,3.011,3.0081,3.0216,3.0183,3.0233,3.0232,3.0261,3.0258,3.0391,3.0287,3.0287,3.0286,3.0286,0,2.9439,2.9515,2.9563,2.9618,2.9702,2.9731,2.9814,2.9848,2.99,2.9961,2.9972,3.0029,3.0066,3.0128,3.0152,3.0238,3.0256,3.0273,3.0278,3.0271,3.0269,3.0295,3.0289,3.029,3.0289,3.0289,3.0288,0,2.9523,2.9559,2.9656,2.9723,2.9741,2.98,2.9858,2.9911,2.9941,3.0018,3.0038,3.0086,3.016,3.0195,3.0287,3.0303,3.04,3.0402,3.0379,3.0381,3.0429,3.0423,3.0582,3.0604,3.0487,3.0488,3.0489,0,2.9589,2.9647,2.972,2.9761,2.9797,2.9864,2.9908,2.9939,2.9985,3.0057,3.0101,3.0175,3.0236,3.0354,3.0397,3.0467,3.0469,3.052,3.048,3.0471,3.0468,3.0464,3.0469,3.0527,3.0528,3.0529,3.053,0,2.9703,2.9718,2.9781,2.985,2.9903,2.9959,3.0014,3.0048,3.0087,3.0137,3.0212,3.0259,3.0352,3.0425,3.0498,3.0534,3.0538,3.0542,3.0557,3.055,3.0534,3.0542,3.0397,3.0538,3.0537,3.0537,3.0536,3.0536,2.978,2.9831,2.989,2.9959,3.0004,3.0055,3.0107,3.0144,3.0207,3.0285,3.0299,3.0378,3.0437,3.0535,3.0573,3.0635,3.0624,3.0646,3.0652,3.0656,3.0658,3.0525,3.0649,3.0649,3.0649,3.0648,3.0648,0,2.9893,2.9931,2.9995,3.0071,3.0125,3.0124,3.0185,3.0231,3.03,3.0354,3.0413,3.0499,3.0569,3.0618,3.0689,3.073,3.0733,3.0747,3.0744,3.0752,3.0665,3.0644,3.0743,3.0743,3.0743,3.0743,3.0743,3.0743,2.9958,3.0044,3.0065,3.0173,3.0211,3.0288,3.0322,3.0369,3.0412,3.0507,3.0565,3.0596,3.0648,3.0723,3.0787,3.08,3.0825,3.0839,3.0851,3.0768,3.0758,3.0749,3.0729,3.0844,3.0845,3.0932,3.0933,3.0934]},{"header":{"parameterUnit":"m.s-1","parameterCategory":1,"la1":30.2991,"la2":30.254,"lo1":-89.0895,"lo2":-89.0444,"dy":0.0017,"dx":0.0017,"nx":28,"ny":28,"refTime":"2024-06-27T09:00:00:Z","depth":0,"parameterNumber":3,"parameterNumberName":"V-component_of_WINDS"},"data":[0,0,0,0,0,0,0,0,0,0,0,0,0,0,0,0,0,0,0,0,0,0,0,0,0,0,0,0,0,0,0,0,0,0,0,0,0,0,0,0,0,0,0,0,0,0,0,0,0,0,0,0,0,0,0,0,0,0,6.1406,6.1408,0,6.1524,6.1525,6.1526,6.15,6.1497,6.1495,6.1493,6.1607,6.1611,6.1616,0,0,0,0,0,0,0,0,0,0,0,0,0,6.1151,6.1156,6.1406,6.1408,6.1409,6.1524,6.1525,6.1527,6.15,6.1497,6.1495,6.1492,6.1605,6.1611,6.1617,0,0,0,0,0,0,0,0,0,0,0,0,0,6.1264,6.1157,6.1406,6.141,6.1411,6.1523,6.1525,6.1527,6.1501,6.1497,6.1494,6.1491,6.1603,6.161,6.1618,6.1731,0,0,6.1641,6.1644,0,0,0,0,0,0,0,0,6.1258,6.1274,6.1408,6.141,6.1412,6.1494,6.1477,6.1595,6.1501,6.1466,6.1493,6.1489,6.1571,6.1581,6.161,6.1736,6.1741,6.1642,6.1646,6.165,6.1652,0,0,0,0,0,0,0,6.125,6.1268,6.1453,6.141,6.1412,6.1403,6.1416,6.1499,6.1536,6.1469,6.1468,6.1482,6.1572,6.1603,6.1613,6.1743,6.1641,6.1648,6.1653,6.1656,6.1965,6.1969,0,0,0,0,0,0,6.1242,6.1262,6.1449,6.1456,6.1325,6.141,6.1424,6.1471,6.1535,6.1542,6.1485,6.1481,6.1592,6.1604,6.1617,6.1752,6.165,6.1657,6.1661,6.1962,6.1966,6.197,0,0,0,0,0,0,6.1236,6.1259,6.1444,6.1359,6.1382,6.1418,6.1471,6.1475,6.1506,6.1547,6.1552,6.1511,6.159,6.1606,6.1703,6.1756,6.166,6.1667,6.1958,6.1963,6.1968,6.2025,0,0,0,0,0,0,6.1229,6.1257,6.1302,6.136,6.1386,6.1531,6.1474,6.1479,6.152,6.1516,6.1573,6.1579,6.1588,6.1692,6.171,6.1765,6.1673,6.1953,6.196,6.1966,6.2019,6.2032,6.2043,0,0,0,0,0,6.122,6.1313,6.1305,6.1327,6.1444,6.1534,6.1549,6.156,6.1525,6.1569,6.1595,6.1577,6.1747,6.1702,6.1723,6.178,6.195,6.1958,6.1966,6.2013,6.203,6.2043,0,0,0,0,0,0,6.1258,6.132,6.1312,6.1427,6.1476,6.1529,6.1586,6.1577,6.1635,6.1628,6.1636,6.1649,6.1748,6.1774,6.1722,6.1892,6.1843,6.1856,6.1872,6.1888,6.19,6.1891,6.1679,0,0,0,0,0,6.128,6.135,6.14,6.1496,6.1521,6.1549,6.1589,6.1593,6.1643,6.1663,6.1696,6.1743,6.1807,6.1848,6.191,6.2022,6.2033,6.2072,6.2084,6.2094,6.2105,6.2164,6.2181,6.1997,6.1997,6.1997,0,0,6.1325,6.1368,6.1412,6.1504,6.1543,6.1613,6.1567,6.1643,6.1694,6.1674,6.1768,6.1793,6.1846,6.1951,6.1999,6.1975,6.2158,6.2105,6.2112,6.2117,6.2174,6.2192,6.2207,6.2003,6.2002,6.2001,0,0,6.1444,6.1484,6.1568,6.1608,6.1667,6.1685,6.1705,6.1761,6.1778,6.1873,6.1858,6.1917,6.2028,6.2066,6.21,6.2231,6.2216,6.2251,6.2315,6.2372,6.2387,6.24,6.2445,6.2462,6.2261,6.2261,6.2262,0,6.1492,6.16,6.1612,6.169,6.173,6.1717,6.18,6.1837,6.1912,6.1939,6.1912,6.205,6.2084,6.2197,6.2229,6.2257,6.2278,6.2244,6.2384,6.2397,6.2409,6.2453,6.247,6.2265,6.2265,6.2264,6.2264,0,6.1655,6.173,6.179,6.1865,6.1912,6.1992,6.2014,6.2059,6.2059,6.2079,6.2174,6.2216,6.2284,6.2311,6.2311,6.2424,6.2407,6.2382,6.2333,6.2431,6.2471,6.2488,6.2271,6.2269,6.2268,6.2267,0,0,6.1801,6.1882,6.1904,6.1937,6.2001,6.2058,6.2136,6.2205,6.2243,6.2294,6.2359,6.2452,6.2429,6.2468,6.2471,6.2522,6.2622,6.2491,6.2492,6.2513,6.2746,6.2764,6.2783,6.2612,6.2616,6.2618,6.2741,0,6.1925,6.2066,6.2078,6.2203,6.2271,6.2258,6.2326,6.2371,6.2391,6.2449,6.2471,6.2537,6.2503,6.2525,6.2575,6.2599,6.2668,6.2591,6.267,6.2672,6.2656,6.2804,6.2824,6.2938,6.2757,6.276,6.2762,0,6.2088,6.2147,6.2279,6.2333,6.2361,6.2422,6.2486,6.2542,6.2592,6.2603,6.2645,6.2642,6.2719,6.2668,6.2773,6.272,6.2753,6.2769,6.2774,6.278,6.2723,6.2814,6.2974,6.2991,6.2787,6.2785,6.2784,0,6.218,6.2291,6.2385,6.2414,6.2479,6.2522,6.255,6.2597,6.2637,6.2691,6.2717,6.2779,6.2813,6.286,6.2872,6.2834,6.2976,6.2926,6.2985,6.2985,6.3015,6.3013,6.3182,6.3038,6.3038,6.3038,6.3037,0,6.2316,6.2397,6.2427,6.2484,6.2574,6.2586,6.2673,6.2699,6.274,6.28,6.2793,6.2848,6.2862,6.2919,6.2929,6.3014,6.3029,6.3038,6.304,6.3039,6.3037,6.306,6.3052,6.3042,6.3041,6.3041,6.304,0,6.2433,6.2457,6.2558,6.2611,6.2626,6.269,6.2734,6.2788,6.2807,6.2883,6.2901,6.293,6.2998,6.3015,6.3095,6.3101,6.32,6.3195,6.3185,6.3184,6.3242,6.3236,6.343,6.3455,6.3296,6.3298,6.3299,0,6.2518,6.2581,6.2641,6.2682,6.2713,6.2778,6.282,6.2833,6.2876,6.2936,6.2982,6.3049,6.3103,6.3211,6.3237,6.3298,6.3293,6.3357,6.3302,6.3298,6.3292,6.3288,6.3293,6.3367,6.3369,6.337,6.3371,0,6.2666,6.2674,6.2736,6.2801,6.2851,6.2902,6.2951,6.2984,6.3004,6.3052,6.3122,6.3164,6.3246,6.3312,6.3373,6.3399,6.3388,6.3388,6.3405,6.3404,6.3395,6.3399,6.3212,6.3384,6.3382,6.3381,6.3381,6.338,6.2769,6.2823,6.2874,6.2942,6.2981,6.3027,6.3079,6.3106,6.3165,6.3234,6.3238,6.3313,6.3359,6.344,6.3469,6.3526,6.3507,6.3531,6.3537,6.3543,6.3547,6.3387,6.3537,6.3537,6.3537,6.3537,6.3536,0,6.2915,6.2947,6.301,6.308,6.3132,6.312,6.3173,6.3217,6.3284,6.3329,6.3383,6.3461,6.3525,6.3556,6.3618,6.3658,6.3654,6.3673,6.367,6.3676,6.3562,6.3541,6.3675,6.3675,6.3675,6.3675,6.3675,6.3675,6.2998,6.3088,6.3103,6.3211,6.3242,6.3318,6.3349,6.339,6.3426,6.3515,6.3569,6.359,6.3628,6.3693,6.3749,6.3756,6.3779,6.3801,6.3805,6.3698,6.3684,6.367,6.3651,6.3806,6.3806,6.3914,6.3915,6.3916]}]]